Overview Statistics Trail Chart Weather Telemetry Raw packets
 

This is the latest recevied weather packets stored in our database for station/object N0QWM. If no packets are shown the sender has not sent any weather packets the latest 10 day(s).

<< 13 14 15 16 17 18 19 >>
Time Temp. Humidity Pressure Rain* Wind** Luminosity Snow
1788564863 33.89° C 55% 1018.9 hPa 0 mm - 17 W/m² -
1788564560 34.44° C 55% 1019 hPa 0 mm - 19 W/m² -
1788564256 34.44° C 54% 1018.8 hPa 0 mm - 22 W/m² -
1788563952 34.44° C 53% 1018.7 hPa 0 mm - 24 W/m² -
1788563647 35° C 53% 1018.7 hPa 0 mm - 27 W/m² -
1788563342 35° C 53% 1018.5 hPa 0 mm - 28 W/m² -
1788563040 35° C 53% 1018.4 hPa 0 mm - 29 W/m² -
1788562735 35.56° C 53% 1018.7 hPa 0 mm - 32 W/m² -
1788562434 35.56° C 53% 1018.4 hPa 0 mm - 34 W/m² -
1788562134 35.56° C 52% 1018.5 hPa 0 mm - 35 W/m² -
1788561829 35.56° C 52% 1018.4 hPa 0 mm - 38 W/m² -
1788561529 36.11° C 51% 1018.7 hPa 0 mm - 109 W/m² -
1788561228 36.11° C 51% 1018.4 hPa 0 mm - 83 W/m² -
1788560925 36.11° C 50% 1018.3 hPa 0 mm - 42 W/m² -
1788560619 36.11° C 50% 1018.4 hPa 0 mm - 147 W/m² -
1788560319 36.11° C 51% 1018.4 hPa 0 mm - 55 W/m² -
1788560014 36.11° C 51% 1018.4 hPa 0 mm - 66 W/m² -
1788559709 36.67° C 51% 1018.2 hPa 0 mm - 167 W/m² -
1788559408 36.67° C 50% 1018 hPa 0 mm - 220 W/m² -
1788559104 36.11° C 50% 1018.1 hPa 0 mm - 224 W/m² -
1788558799 36.11° C 50% 1018.2 hPa 0 mm - 123 W/m² -
1788558495 36.67° C 51% 1018 hPa 0 mm - 59 W/m² -
1788558190 36.67° C 51% 1018.2 hPa 0 mm - 60 W/m² -
1788557888 36.67° C 51% 1018.2 hPa 0 mm - 71 W/m² -
1788557584 36.67° C 49% 1018.3 hPa 0 mm - 146 W/m² -

* Rain latest hour (hover to see other rain measurements)
** Current wind speed in m/s (hover to see current wind gust speed)